Showing default

GALILEO 5 (261), 40128

Orbit data source: Space-Track

GALILEO 5 (261), 40128 is a payload satellite owned by GNSS Agency (ESA) in MEO that was launched on Fri, 22 Aug 2014 UTC via a SOYUZ-ST-B launch vehicle from the French Guiana (FRGUI). Payload-class satellites include a variety of spacecraft equipped with specific instruments for various scientific and technological missions. These include communications satellites like Starlink; space stations such as the ISS; scientific satellites like the Hubble; Earth observation satellites from companies like Planet Labs, Umbra, and HawkEye 360; GPS; miniature CubeSats for education and research; and military/defense satellites.

Loading next visibility...
Identifier
40128, 2014-050A
Orbit
MEO
Country
Flag of ESAESA
Related business
Manufacturer
OHB
Mission
On reserve Civil Navigation
Bus & Motor
GALILEOSAT, AOCS
Mass
733 kg wet, 700 kg dry
Launch date (UTC)
2014-08-22 (11 years ago)
Launch vehicle
SOYUZ-ST-B
Launch site
French Guiana (FRGUI)
Object type
Payload
Rocket body
Debris
Shape & HBR
Box + 2 Pan, 7.4 m
Radar Cross Section
9.223 m², Large (>1 m²)

Expand to show TLE details & history
Last TLE update: 16 hours ago

TLE from 16 hours ago
0 GALILEO 5 (261)
1 40128U 14050A   25257.99471847 -.00000007  00000-0  00000-0 0  9993
2 40128  49.1754 284.6756 1640020 168.8918 195.2465  1.85519468 73211
Epoch: 2025-09-14T23:52Z
TLE epoch observation values (Epoch: 2025-09-14T23:52:23.675Z)
Latitude
-0.00001°
Longitude
-67.6124°
Altitude
26,065.132 km
Speed
3.213 km/s
True Right ascension
18h 58m 46s
True Declination
0° 00' 00"
Sunlit
Object was in daylight at epoch
Visualization orbit readout
Latitude
Unknown
Longitude
Unknown
Altitude
Unknown
Speed
Unknown
Apparent Right ascension
Unknown
Apparent Declination
Unknown
Sunlit
N/A
Visualization observer readout
Local Sidereal Time
08:13:27
Azimuth
Unknown
Elevation
Unknown
Doppler factor
Unknown
Orbital elements
Apogee altitude
26,188.014 km
Perigee altitude
17,011.202 km
Semi-major axis
27,977.745 km
Eccentricity
0.164
Inclination
49.1754°
RAAN
284.6756°
Arg. of periapsis
168.8918°
True anomaly
191.1278°
Mean anomaly
195.2465°
Eccentric anomaly
193.11444°
Mean motion
0.46379 °/min
Orbital period
776.21 mins
BSTAR
0
Loading maneuver chart data...
Computing Atmospheric mass density...
Loading historical data...
Loading historical data...
Loading historical data...
Loading historical data...
Loading historical data...
Loading historical data...
Loading historical data...
Other satellites on launch #50 in the year 2014 (2014-08-22 UTC)

Documentation

Showing up to 5 results
|